Aeroporto :
LOGIN :

Iscrizione | Disclaimer

   EN    FR    IT 

 










Sommario :    VFR   VFR Marginale   IFR   IFR Intensivo   IFR Molto Intensivo
Visibilità : 
Base nubi : 
>= 8 km
>= 3000ft
5 / 8 km
1000 / 3000 ft
1500m / 5 km
500 / 1000 ft
800 / 1500m
200 / 500 ft
< 800m
< 200 ft
Simboli :   Temporali  Nebbia  Neve Forte  Precipitazioni Forti  Vento > 20 kt
SIGMETs :   Varie  Temporali  Ghiacco  Turbolenza  Onda orograficha  Ceneri Vulcaniche







- Altitudine del aeroporto : 1036 ft
- Codice IATA : ERF


EDDE - Erfurt

ULTIMO METAR :
  • 161120Z 36004KT CAVOK 11/02 Q1026 NOSIG

METARs OBSOLETI :
  • 161050Z VRB03KT CAVOK 15/M02 Q1027 NOSIG
  • 161020Z 18009KT CAVOK 14/M03 Q1026 NOSIG
  • 160950Z 18010KT CAVOK 12/M02 Q1026 NOSIG
  • 160920Z 19011KT CAVOK 10/M03 Q1026 NOSIG
  • 160850Z 19010KT CAVOK 08/M03 Q1027 NOSIG

TAF TAF EDDE
Valido dal 16 a 12 ore il 17 a 12 ore UTC


161100Z 1612/1712 22007KT CAVOK
Nessun NOTAM noto per questo aeroporto.



MetMap, La meteo Aeronautica in un colpo d'occhio ! - Copyright ORBIFLY Dicembre 2007 - Disclaimer

ORBIFLY MET'MAP TEAM :

Programmazione e sviluppo : Alexandra Zaïnal
Concezione e sviluppo : Baudouin d'Aumeries
Co-Programmazione e sviluppo : Marc-Olivier Méhu
Supporto tecnico e logistico : Manuel Goepfert
Aiuto per la traduzione : Arnaldo La Scala

Contatto : metmap@orbifly.com




FONTI E CREDITI :

   NOAA